FW4468 Weather Reports


time (UTC)temp
C
wind
direction
speed
KPH
gust
KPH
rain 1hr
cm
rain 24hr
cm
rain mn
cm
humidity
%
barometer
mb
20260906150051 13 210 0.0 6.4 0.00 0.00 0.00 64 1015.3
20260906144549 13 166 0.0 6.4 0.00 0.00 0.00 65 1015.3
20260906143052 12 17 0.0 6.4 0.00 0.00 0.00 65 1015.2
20260906141547 12 309 0.0 4.8 0.00 0.00 0.00 65 1015.3
20260906140056 12 144 0.0 3.2 0.00 0.00 0.00 65 1015.3
20260906134547 12 170 0.0 3.2 0.00 0.00 0.00 66 1015.2
20260906133046 12 119 0.0 6.4 0.00 0.00 0.00 66 1015.1
20260906131559 12 180 1.6 11.3 0.00 0.00 0.00 67 1015.0
20260906130046 11 110 0.0 4.8 0.00 0.00 0.00 67 1015.0
20260906124544 11 154 0.0 3.2 0.00 0.00 0.00 68 1015.0
20260906123045 11 163 0.0 3.2 0.00 0.00 0.00 67 1015.2
20260906121541 11 159 0.0 1.6 0.00 0.00 0.00 67 1015.2
20260906120040 11 146 0.0 1.6 0.00 0.00 0.00 67 1015.3
20260906114540 11 144 0.0 1.6 0.00 0.00 0.00 67 1015.3
20260906113039 11 142 0.0 1.6 0.00 0.00 0.00 68 1015.4
20260906111535 11 142 0.0 1.6 0.00 0.00 0.00 67 1015.4
20260906110034 11 140 0.0 1.6 0.00 0.00 0.00 67 1015.4
20260906104533 12 140 0.0 1.6 0.00 0.00 0.00 67 1015.3
20260906103031 12 140 0.0 4.8 0.00 0.00 0.00 66 1015.3
20260906101531 12 121 0.0 1.6 0.00 0.00 0.00 66 1015.4
20260906100029 12 176 0.0 3.2 0.00 0.00 0.00 66 1015.3
20260906094529 12 256 0.0 4.8 0.00 0.00 0.00 66 1015.3
20260906093037 12 81 0.0 4.8 0.00 0.00 0.00 66 1015.2
20260906091526 12 123 0.0 4.8 0.00 0.00 0.00 66 1015.3
20260906090026 12 151 0.0 12.9 0.00 0.00 0.00 66 1015.4
20260906084524 12 55 0.0 6.4 0.00 0.00 0.00 65 1015.5
20260906083024 12 138 0.0 4.8 0.00 0.00 0.00 66 1015.6
20260906081526 12 157 0.0 3.2 0.00 0.00 0.00 67 1015.6
20260906080020 12 162 0.0 3.2 0.00 0.00 0.00 67 1015.6
20260906074520 12 162 0.0 1.6 0.00 0.00 0.00 67 1015.7
20260906073016 12 165 0.0 3.2 0.00 0.00 0.00 66 1015.7
20260906071513 12 159 0.0 0.0 0.00 0.00 0.00 65 1015.8
20260906070010 13 159 0.0 1.6 0.00 0.00 0.00 64 1015.9
20260906064514 13 159 0.0 1.6 0.00 0.00 0.00 63 1016.1
20260906063008 13 159 0.0 4.8 0.00 0.00 0.00 62 1015.9
20260906061508 13 238 0.0 3.2 0.00 0.00 0.00 62 1015.9
20260906060013 14 257 0.0 1.6 0.00 0.00 0.00 61 1016.0
20260906054610 14 262 0.0 1.6 0.00 0.00 0.00 61 1016.1
20260906053015 14 256 0.0 1.6 0.00 0.00 0.00 61 1016.1
20260906051505 15 257 0.0 3.2 0.00 0.00 0.00 60 1016.1
20260906050005 15 360 0.0 0.0 0.00 0.00 0.00 59 1016.1
20260906044506 15 281 0.0 3.2 0.00 0.00 0.00 58 1016.1
20260906043004 15 310 0.0 3.2 0.00 0.00 0.00 57 1016.3
20260906041511 16 271 0.0 3.2 0.00 0.00 0.00 55 1016.4
20260906040004 16 140 0.0 3.2 0.00 0.00 0.00 54 1016.5
20260906034504 16 103 0.0 3.2 0.00 0.00 0.00 53 1016.6
20260906033003 17 80 0.0 4.8 0.00 0.00 0.00 51 1016.5
20260906031502 17 91 0.0 1.6 0.00 0.00 0.00 50 1016.4
20260906030002 17 136 0.0 3.2 0.00 0.00 0.00 50 1016.2
20260906024501 17 22 0.0 0.0 0.00 0.00 0.00 50 1016.2
20260906023001 17 22 0.0 0.0 0.00 0.00 0.00 48 1016.1
20260906021503 18 22 0.0 0.0 0.00 0.00 0.00 45 1016.1
20260906020101 19 22 0.0 1.6 0.00 0.00 0.00 41 1016.1
20260906020001 19 22 0.0 1.6 0.00 0.00 0.00 41 1016.0
20260906014611 19 22 0.0 3.2 0.00 0.00 0.00 40 1016.0
20260906013100 20 14 1.6 4.8 0.00 0.00 0.00 39 1016.0
20260906011613 20 140 0.0 4.8 0.00 0.00 0.00 38 1015.9
20260906010058 20 172 0.0 4.8 0.00 0.00 0.00 37 1015.7
20260906004557 21 180 3.2 8.0 0.00 0.00 0.00 35 1015.7
20260906003056 21 169 1.6 8.0 0.00 0.00 0.00 35 1015.6
20260906001600 21 340 1.6 6.4 0.00 0.00 0.00 36 1015.6
20260906000054 21 100 0.0 8.0 0.00 0.00 0.00 37 1015.5
20260905234553 21 109 1.6 4.8 0.00 0.00 0.00 39 1015.6
20260905233108 21 63 1.6 6.4 0.00 0.00 0.00 40 1015.7
20260905231555 22 131 1.6 6.4 0.00 0.00 0.00 38 1015.8
20260905230051 22 140 3.2 6.4 0.00 0.00 0.00 34 1015.9
20260905224608 23 145 1.6 11.3 0.00 0.00 0.00 35 1015.8
20260905223053 23 68 0.0 6.4 0.00 0.00 0.00 37 1015.8
20260905221546 22 43 3.2 8.0 0.00 0.00 0.00 36 1015.8
20260905220049 22 240 3.2 11.3 0.00 0.00 0.00 37 1015.9
20260905214544 23 186 3.2 11.3 0.00 0.00 0.00 39 1016.0
20260905213043 23 196 1.6 6.4 0.00 0.00 0.00 37 1016.1
20260905211539 23 164 0.0 8.0 0.00 0.00 0.00 41 1016.1
20260905210036 22 178 3.2 12.9 0.00 0.00 0.00 44 1016.2
20260905204533 21 127 0.0 9.7 0.00 0.00 0.00 47 1016.2
20260905203031 21 257 4.8 12.9 0.00 0.00 0.00 48 1016.4
20260905201529 20 171 3.2 12.9 0.00 0.00 0.00 53 1016.6
20260905200027 20 181 1.6 11.3 0.00 0.00 0.00 56 1016.7
20260905194525 20 215 3.2 12.9 0.00 0.00 0.00 59 1016.8
20260905193023 20 260 3.2 11.3 0.00 0.00 0.00 59 1016.8
20260905191520 19 177 1.6 6.4 0.00 0.00 0.00 60 1016.9
20260905190017 18 155 1.6 8.0 0.00 0.00 0.00 62 1017.0
20260905184517 17 355 0.0 9.7 0.00 0.00 0.00 64 1017.1
20260905183012 17 165 1.6 4.8 0.00 0.00 0.00 65 1017.3
20260905181509 17 185 0.0 4.8 0.00 0.00 0.00 68 1017.4
20260905180004 16 62 0.0 6.4 0.00 0.00 0.00 69 1017.5
20260905174505 16 9 3.2 9.7 0.00 0.00 0.00 70 1017.5
20260905173059 15 227 0.0 4.8 0.00 0.00 0.00 73 1017.4
20260905171556 15 275 1.6 6.4 0.00 0.00 0.00 75 1017.5
20260905170055 14 60 0.0 4.8 0.00 0.00 0.00 75 1017.4
20260905164550 13 163 0.0 3.2 0.00 0.00 0.00 78 1017.3
20260905163046 13 344 0.0 3.2 0.00 0.00 0.00 80 1017.2
20260905161543 12 119 0.0 0.0 0.00 0.00 0.00 82 1017.2
20260905160042 12 131 0.0 0.0 0.00 0.00 0.00 82 1017.1
20260905154541 11 132 0.0 0.0 0.00 0.00 0.00 82 1017.1
20260905153040 11 132 0.0 0.0 0.00 0.00 0.00 82 1017.2
20260905151538 10 132 0.0 0.0 0.00 0.00 0.00 82 1017.0